Regional Weather Roundup
Issued by NWS

Home | Current Version | Previous Version | Graphics & Text | Print | Product List | Glossary On
Versions: 1 2 3 4 5 6 7 8 9 10 11 12 13 14 15 16 17 18 19 20 21 22 23 24 25 26 27 28 29 30 31 32 33 34 35 36 37 38 39 40 41 42 43 44 45 46 47 48 49 50
000
ASUS43 KLSX 230207
RWRMO

WEATHER SUMMARY FOR MISSOURI
NATIONAL WEATHER SERVICE SPRINGFIELD MO
800 PM CST MON DEC 22 2014

NOTE: "FAIR" INDICATES FEW OR NO CLOUDS BELOW 12,000 FEET WITH NO
       SIGNIFICANT WEATHER AND/OR OBSTRUCTIONS TO VISIBILITY.
       CURRENT SKY AND/OR WEATHER CONDITIONS ARE NOT AVAILABLE FOR
       CHILLICOTHE AND FARMINGTON.

MOZ001>031-035>038-043-044-053-054-230300-
...NORTHERN AND WESTERN MISSOURI...

CITY           SKY/WX    TMP DP  RH WIND       PRES   REMARKS
KANSAS CTY INT CLOUDY    43  41  93 W10       29.50R
KANSAS C DTWN  CLOUDY    46  41  82 W10       29.52R
LEE`S SUMMIT   CLOUDY    44  40  85 SW9       29.52R
ST JOSEPH      CLOUDY    43  40  89 W8        29.49R
CHILLICOTHE      N/A     45  43  93 W6        29.47R
KIRKSVILLE     LGT RAIN  44  44 100 SE5       29.46F FOG

$$
MOZ066>068-077>081-088>096-101>105-230300-
...SOUTHWEST MISSOURI...

CITY           SKY/WX    TMP DP  RH WIND       PRES   REMARKS
SPRINGFIELD    CLOUDY    48  45  89 W12       29.58R
JOPLIN         PTCLDY    45  42  89 W9        29.62R

$$
MOZ032>034-039>042-045>050-055>058-069>072-230300-
...CENTRAL MISSOURI...

CITY           SKY/WX    TMP DP  RH WIND       PRES   REMARKS
COLUMBIA       LGT RAIN  48  46  93 SW12      29.50R
JEFFERSON CITY LGT RAIN  49  46  90 SW8       29.51R
ROLLA          LGT RAIN  48  46  93 S12       29.51R
SEDALIA        CLOUDY    48  45  89 W13       29.52R
WHITEMAN AFB   CLOUDY    45  42  88 W12       29.52R
WARRENSBURG    CLOUDY    43  39  87 SW7       29.53R
OSAGE BEACH    CLOUDY    48  45  87 SW10G16   29.53R

$$
MOZ051-052-059>065-230300-
...EAST CENTRAL MISSOURI...

CITY           SKY/WX    TMP DP  RH WIND       PRES   REMARKS
ST LOUIS INTL  CLOUDY    51  48  89 S9        29.52F FOG
SPIRIT OF STL  LGT RAIN  50  48  93 S6        29.51F
ST CHARLES     LGT RAIN  49  48  97 SE9       29.51F

$$
MOZ072>076-082>087-097>100-106>115-230300-
...SOUTH CENTRAL AND SOUTHEAST MISSOURI...

CITY           SKY/WX    TMP DP  RH WIND       PRES   REMARKS
CAPE GIRARDEAU CLOUDY    52  51  97 S12       29.59F
FARMINGTON     CLOUDY    50  48  93 SE9       29.56R
POPLAR BLUFF   CLOUDY    53  51  93 S8        29.58R
WEST PLAINS    CLOUDY    50  47  89 SW10      29.58R

$$


USA.gov is the U.S. government's official web portal to all federal, state and local government web resources and services.